Home > Time Zones > World Clock > Weather > Chad > Sarh > Past weeks

Flag for Chad Weather past 2 weeks in Sarh, Chad

Now
88 °F

Scattered clouds.


Feels Like: 96 °F
Forecast: 74 / 87 °F
Wind: No wind

Location: Sarh Airport

Current Time: Aug 1, 2015 at 1:52:50 PM

Latest Report: Aug 1, 2015 at 1:00 PM


Visibility: N/A

Pressure: 29.95 "Hg

Humidity: 62%

Dew point: 73 °F

Location of SarhLocation

Historic Weather in Sarh — Graph

°F

Sarh temperature yesterday

Maximum temperature yesterday: 91 °F (at 2:00 PM)
Minimum temperature yesterday: 75 °F (at 4:00 AM)
Average temperature yesterday: 80 °F

Past Weeks' High & Low Weather Summary

 TemperatureHumidityPressure
High97 °F (Jul 26, 4:00 PM)100% (Jul 31, 4:00 AM)30.04 "Hg (Jul 31, 4:00 AM)
Low72 °F (Jul 19, 10:00 PM)39% (Jul 18, 3:00 PM)29.80 "Hg (Jul 19, 4:00 PM)
Average81 °F76%29.93 "Hg
* Reported Jul 17 12:00 Noon — Aug 1 12:00 Noon, Sarh, Weather by CustomWeather, © 2015

Note: Actual official high and low records may vary slightly from our data, if they occured in-between our weather recording intervals... More about our weather records

Advertising

Sarh weather history for previous 24 hours

 ConditionsComfort  
Time TempWeatherWind HumidityBarometerVisibility
12:00 PM
Sat, Aug 1
86 °FScattered clouds.No wind66%29.98 "HgN/A
11:00 AM82 °FPartly sunny.2 mph84%29.98 "HgN/A
10:00 AM79 °FScattered clouds.2 mph79%29.98 "HgN/A
9:00 AM77 °FPassing clouds.No wind83%29.98 "HgN/A
8:00 AM75 °FScattered clouds.No wind94%29.98 "HgN/A
7:00 AM73 °FScattered clouds.No wind94%29.92 "HgN/A
6:00 AM73 °FFog.No wind94%29.92 "Hg2 mi
5:00 AM73 °FPassing clouds.No wind94%29.92 "HgN/A
4:00 AM73 °FPassing clouds.No wind94%29.92 "HgN/A
3:00 AM73 °FPassing clouds.No wind94%29.92 "HgN/A
1:00 AM73 °FPassing clouds.No wind94%29.95 "HgN/A
12:00 AM73 °FPassing clouds.No wind94%29.95 "HgN/A
11:00 PM
Fri, Jul 31
75 °FPassing clouds.No wind94%29.95 "HgN/A
10:00 PM75 °FPassing clouds.No wind94%29.98 "HgN/A
9:00 PM75 °FPassing clouds.No wind94%29.98 "HgN/A
8:00 PM77 °FPassing clouds.2 mph83%29.92 "HgN/A
7:00 PM75 °FPassing clouds.2 mph94%29.92 "HgN/A
6:00 PM75 °FThunderstorms. Passing clouds.No wind94%29.89 "HgN/A
5:00 PM75 °FThunderstorms. Passing clouds.7 mph94%29.89 "HgN/A
4:00 PM77 °FThunderstorms. Scattered clouds.No wind89%29.92 "HgN/A
3:00 PM82 °FScattered clouds.16 mph74%29.92 "HgN/A
2:00 PM91 °FHot.No wind49%29.92 "HgN/A
1:00 PM90 °FScattered clouds.2 mph59%29.95 "HgN/A
Weather by CustomWeather, © 2015

See weather overviewHow to use our weather pages